Location: Bohy
(49.9380°N, 13.5753°E)
Time: 17:24:14
(UTC+00:00)

Meteor 2-4 Rocket - Pass Details

Date: 19 May 2025
Orbit: 798 x 906 km, 81.2° (Epoch: 17 June)

Event Time Altitude Azimuth Distance (km) Brightness Sun altitude
Exits shadow 22:30:54 36° 185° (S) 1,331 4.2 -19.7°
Maximum altitude 22:33:20 84° 100° (E) 883 3.7 -19.8°
Drops below altitude 10° 22:39:11 10° 13° (NNE) 2,564 7.3 -19.9°
Sets 22:41:40 0° 13° (NNE) 3,520 8.2 -19.9°
